Atlantic, IA

10:09 PM CDT on August 31, 2016 (GMT -0500)
Atlantic Municipal

Weather History for KAIO - December, 2013

Change the Weather History Date:

Monday, December 23, 2013

  Actual Average Record
Temperature  
Mean Temperature -2 °F -  
Max Temperature 6 °F 30 °F 48 °F (2005)
Min Temperature -13 °F 12 °F -13 °F (2013)
Degree Days  
Heating Degree Days 68    
Moisture  
Dew Point -11 °F    
Average Humidity 59    
Maximum Humidity 72    
Minimum Humidity 43    
Precipitation  
Precipitation 0.00 in - - ()
Sea Level Pressure  
Sea Level Pressure 30.50 in    
Wind  
Wind Speed 10 mph (NW)    
Max Wind Speed 20 mph    
Max Gust Speed 23 mph    
Visibility 10 miles    
Events Snow    
Averages and records for this station are not official NWS values.
T = Trace of Precipitation, MM = Missing Value Source: NWS Daily Summary

Daily Weather History Graph

Daily Weather History Graph

Search for Another Location

Airport or City:

Trip Planner

Search our weather history database for the weather conditions in past years. The results will help you decide how hot, cold, wet, or windy it might be!

Date:

Astronomy

Dec. 23, 2013 Rise Set
Actual Time 7:44 AM CST 4:55 PM CST
Civil Twilight 7:12 AM CST 5:26 PM CST
Nautical Twilight 6:37 AM CST 6:01 PM CST
Astronomical Twilight 6:03 AM CST 6:35 PM CST
Moon 11:09 PM CST (12/23) 11:05 AM CST (12/23)
Length of Visible Light 10h 13m
Length of Day
9h 11m
Waning Gibbous, 68% of the Moon is Illuminated
Dec 23
Waning Gibbous
Dec 25
Last Quarter
Jan 1
New
Jan 7
First Quarter
Jan 15
Full

Hourly Weather History & Observations

Time (CST) Temp. Windchill Dew Point Humidity Pressure Visibility Wind Dir Wind Speed Gust Speed Precip Events Conditions
12:15 AM 3.2 °F -9.1 °F -4.0 °F 72% 30.36 in 10.0 mi NW 6.9 mph - N/A   Clear
12:35 AM 3.2 °F -11.3 °F -4.0 °F 72% 30.37 in 10.0 mi NNW 9.2 mph - N/A   Scattered Clouds
12:55 AM 3.2 °F -13.9 °F -4.0 °F 72% 30.37 in 10.0 mi NNW 12.7 mph - N/A   Mostly Cloudy
1:15 AM 3.2 °F -13.9 °F -4.0 °F 72% 30.37 in 10.0 mi NW 12.7 mph - N/A   Overcast
1:35 AM 3.2 °F -11.3 °F -5.8 °F 66% 30.38 in 10.0 mi NNW 9.2 mph - N/A   Overcast
1:55 AM 1.4 °F -14.5 °F -5.8 °F 72% 30.38 in 10.0 mi NNW 10.4 mph - N/A   Mostly Cloudy
2:15 AM 1.4 °F -12.5 °F -5.8 °F 72% 30.40 in 10.0 mi NNW 8.1 mph 13.8 mph N/A   Mostly Cloudy
2:35 AM 1.4 °F -13.5 °F -5.8 °F 72% 30.41 in 10.0 mi NW 9.2 mph - N/A   Mostly Cloudy
2:55 AM 1.4 °F -15.3 °F -5.8 °F 72% 30.41 in 10.0 mi NNW 11.5 mph - N/A   Overcast
3:15 AM 1.4 °F -13.5 °F -5.8 °F 72% 30.41 in 10.0 mi NNW 9.2 mph - N/A   Overcast
3:35 AM 1.4 °F -13.5 °F -5.8 °F 72% 30.42 in 10.0 mi NNW 9.2 mph - N/A   Overcast
3:55 AM 3.2 °F -13.1 °F -4.0 °F 72% 30.43 in 10.0 mi NW 11.5 mph - N/A   Overcast
4:15 AM 3.2 °F -15.3 °F -5.8 °F 66% 30.43 in 10.0 mi NNW 15.0 mph - N/A   Overcast
4:35 AM 3.2 °F -13.9 °F -5.8 °F 66% 30.43 in 10.0 mi NW 12.7 mph 19.6 mph N/A   Overcast
4:55 AM 1.4 °F -15.3 °F -5.8 °F 72% 30.43 in 10.0 mi NW 11.5 mph 18.4 mph N/A   Overcast
5:15 AM 1.4 °F -16.1 °F -5.8 °F 72% 30.43 in 10.0 mi NNW 12.7 mph 19.6 mph N/A   Overcast
5:35 AM 3.2 °F -15.3 °F -5.8 °F 66% 30.44 in 10.0 mi NW 15.0 mph 23.0 mph N/A   Overcast
5:55 AM 3.2 °F -17.6 °F -5.8 °F 66% 30.44 in 10.0 mi NW 19.6 mph - N/A   Overcast
6:15 AM 3.2 °F -16.5 °F -5.8 °F 66% 30.46 in 10.0 mi NW 17.3 mph - N/A   Overcast
6:35 AM 1.4 °F -16.9 °F -7.6 °F 66% 30.47 in 10.0 mi NW 13.8 mph 20.7 mph N/A   Overcast
6:55 AM -0.4 °F -18.4 °F -9.4 °F 66% 30.47 in 10.0 mi NW 12.7 mph - N/A   Overcast
7:15 AM -0.4 °F -18.4 °F -9.4 °F 66% 30.49 in 10.0 mi WNW 12.7 mph - N/A   Overcast
7:35 AM -0.4 °F -16.7 °F -9.4 °F 66% 30.49 in 10.0 mi NW 10.4 mph - N/A   Overcast
7:55 AM -0.4 °F -18.4 °F -11.2 °F 60% 30.51 in 10.0 mi NW 12.7 mph - N/A   Mostly Cloudy
8:15 AM -2.2 °F -18.0 °F -11.2 °F 66% 30.52 in 10.0 mi WNW 9.2 mph 15.0 mph N/A   Clear
8:35 AM -2.2 °F -12.5 °F -11.2 °F 66% 30.53 in 10.0 mi WNW 4.6 mph - N/A   Clear
8:55 AM -0.4 °F -16.7 °F -11.2 °F 60% 30.54 in 10.0 mi WNW 10.4 mph - N/A   Clear
9:15 AM -0.4 °F -19.2 °F -11.2 °F 60% 30.54 in 10.0 mi WNW 13.8 mph 20.7 mph N/A   Clear
9:35 AM -0.4 °F -19.9 °F -11.2 °F 60% 30.55 in 10.0 mi NW 15.0 mph - N/A   Clear
9:55 AM -0.4 °F -21.2 °F -11.2 °F 60% 30.55 in 10.0 mi WNW 17.3 mph - N/A   Clear
10:15 AM 1.4 °F -18.8 °F -11.2 °F 56% 30.55 in 10.0 mi NW 17.3 mph - N/A   Clear
10:35 AM 1.4 °F -16.1 °F -11.2 °F 56% 30.56 in 10.0 mi NW 12.7 mph 19.6 mph N/A   Clear
10:55 AM 1.4 °F -15.3 °F -11.2 °F 56% 30.56 in 10.0 mi NW 11.5 mph 17.3 mph N/A   Clear
11:15 AM 1.4 °F -19.4 °F -11.2 °F 56% 30.56 in 10.0 mi NW 18.4 mph - N/A   Clear
11:35 AM 3.2 °F -16.5 °F -9.4 °F 56% 30.55 in 10.0 mi WNW 17.3 mph 23.0 mph N/A   Clear
11:55 AM 3.2 °F -16.5 °F -9.4 °F 56% 30.54 in 10.0 mi WNW 17.3 mph 23.0 mph N/A   Clear
12:15 PM 3.2 °F -16.5 °F -11.2 °F 51% 30.54 in 10.0 mi WNW 17.3 mph - N/A   Clear
12:35 PM 5.0 °F -13.6 °F -11.2 °F 47% 30.54 in 10.0 mi NW 16.1 mph - N/A   Clear
12:55 PM 5.0 °F -13.0 °F -9.4 °F 52% 30.53 in 10.0 mi NW 15.0 mph - N/A   Clear
1:15 PM 5.0 °F -11.6 °F -9.4 °F 52% 30.53 in 10.0 mi WNW 12.7 mph - N/A   Clear
1:35 PM 5.0 °F -12.3 °F -9.4 °F 52% 30.53 in 10.0 mi WNW 13.8 mph - N/A   Clear
1:55 PM 6.8 °F -10.0 °F -11.2 °F 44% 30.52 in 10.0 mi WNW 13.8 mph - N/A   Clear
2:15 PM 6.8 °F -7.8 °F -11.2 °F 44% 30.52 in 10.0 mi WNW 10.4 mph - N/A   Clear
2:35 PM 6.8 °F -9.3 °F -11.2 °F 44% 30.51 in 10.0 mi WNW 12.7 mph - N/A   Clear
2:55 PM 6.8 °F -10.0 °F -11.2 °F 44% 30.51 in 10.0 mi NW 13.8 mph - N/A   Clear
3:15 PM 6.8 °F -10.0 °F -11.2 °F 44% 30.51 in 10.0 mi WNW 13.8 mph - N/A   Clear
3:35 PM 6.8 °F -10.0 °F -11.2 °F 44% 30.52 in 10.0 mi WNW 13.8 mph - N/A   Clear
3:55 PM 6.8 °F -3.5 °F -11.2 °F 44% 30.53 in 10.0 mi WNW 5.8 mph 12.7 mph N/A   Clear
4:15 PM 6.8 °F -5.9 °F -11.2 °F 44% 30.53 in 10.0 mi WNW 8.1 mph - N/A   Clear
4:35 PM 5.0 °F -5.6 °F -11.2 °F 47% 30.54 in 10.0 mi WNW 5.8 mph - N/A   Clear
4:55 PM 5.0 °F -6.9 °F -13.0 °F 43% 30.53 in 10.0 mi WNW 6.9 mph - N/A   Clear
5:15 PM 3.2 °F -12.2 °F -13.0 °F 47% 30.53 in 10.0 mi WNW 10.4 mph - N/A   Clear
5:35 PM 3.2 °F -9.1 °F -14.8 °F 43% 30.53 in 10.0 mi WNW 6.9 mph - N/A   Clear
5:55 PM 1.4 °F -11.3 °F -14.8 °F 47% 30.53 in 10.0 mi WNW 6.9 mph - N/A   Clear
6:15 PM 1.4 °F -9.9 °F -14.8 °F 47% 30.53 in 10.0 mi NW 5.8 mph - N/A   Clear
6:35 PM -2.2 °F -16.8 °F -16.6 °F 50% 30.54 in 10.0 mi NW 8.1 mph - N/A   Clear
6:55 PM -0.4 °F -13.4 °F -16.6 °F 46% 30.54 in 10.0 mi NW 6.9 mph - N/A   Clear
7:15 PM -4.0 °F -12.4 °F -18.4 °F 50% 30.54 in 10.0 mi WNW 3.5 mph - N/A   Clear
7:35 PM -4.0 °F - -16.6 °F 55% 30.55 in 10.0 mi Calm Calm - N/A   Clear
7:55 PM -4.0 °F -16.3 °F -18.4 °F 50% 30.55 in 10.0 mi WNW 5.8 mph - N/A   Clear
8:15 PM -7.6 °F - -18.4 °F 59% 30.55 in 10.0 mi Calm Calm - N/A   Clear
8:35 PM -7.6 °F - -18.4 °F 59% 30.55 in 10.0 mi Calm Calm - N/A   Clear
8:55 PM -7.6 °F - -18.4 °F 59% 30.54 in 10.0 mi Calm Calm - N/A   Clear
9:15 PM -7.6 °F - -18.4 °F 59% 30.54 in 10.0 mi Calm Calm - N/A   Clear
9:35 PM -9.4 °F - -18.4 °F 65% 30.54 in 10.0 mi Calm Calm - N/A   Clear
9:55 PM -11.2 °F - -20.2 °F 64% 30.54 in 10.0 mi Calm Calm - N/A Snow Light Snow
10:15 PM -11.2 °F -26.4 °F -20.2 °F 64% 30.55 in 10.0 mi SSW 6.9 mph - N/A   Clear
10:35 PM -11.2 °F - -20.2 °F 64% 30.55 in 10.0 mi Calm Calm - N/A   Clear
10:55 PM -9.4 °F - -20.2 °F 59% 30.55 in 10.0 mi Calm Calm - N/A Snow Light Snow
11:15 PM -11.2 °F - -20.2 °F 64% 30.54 in 10.0 mi Calm Calm - N/A   Clear
11:35 PM -11.2 °F - -20.2 °F 64% 30.54 in 10.0 mi Calm Calm - N/A   Clear
11:55 PM -13.0 °F -22.7 °F -20.2 °F 70% 30.53 in 10.0 mi NNE 3.5 mph - N/A Snow Light Snow